| time (UTC) | temp C | wind direction | speed KPH | gust KPH | rain 1hr cm | rain 24hr cm | rain mn cm | humidity % | barometer mb |
| 20260904134215 | 14 | 252 | 20.9 | 32.2 | 0.00 | 0.00 | 0.00 | 32 | 1012.7 |
| 20260904133718 | 14 | 250 | 20.9 | 32.2 | 0.00 | 0.00 | 0.00 | 32 | 1012.6 |
| 20260904132724 | 14 | 248 | 22.5 | 35.4 | 0.00 | 0.00 | 0.00 | 34 | 1012.4 |
| 20260904131233 | 14 | 259 | 27.4 | 35.4 | 0.00 | 0.00 | 0.00 | 34 | 1012.1 |
| 20260904124748 | 14 | 262 | 25.7 | 32.2 | 0.00 | 0.00 | 0.00 | 37 | 1011.8 |
| 20260904123754 | 13 | 260 | 22.5 | 33.8 | 0.00 | 0.00 | 0.00 | 38 | 1011.9 |
| 20260904122800 | 14 | 263 | 24.1 | 33.8 | 0.00 | 0.00 | 0.00 | 38 | 1011.8 |
| 20260904122306 | 14 | 259 | 20.9 | 32.2 | 0.00 | 0.00 | 0.00 | 38 | 1011.8 |
| 20260904121806 | 14 | 257 | 20.9 | 32.2 | 0.00 | 0.00 | 0.00 | 38 | 1011.8 |
| 20260904121309 | 13 | 261 | 20.9 | 32.2 | 0.00 | 0.00 | 0.00 | 39 | 1011.8 |
| 20260904115818 | 13 | 258 | 22.5 | 35.4 | 0.00 | 0.00 | 0.00 | 44 | 1011.6 |
| 20260904115321 | 13 | 262 | 24.1 | 37.0 | 0.00 | 0.00 | 0.00 | 46 | 1011.7 |
| 20260904114824 | 13 | 266 | 25.7 | 37.0 | 0.00 | 0.00 | 0.00 | 47 | 1011.6 |
| 20260904113830 | 13 | 257 | 22.5 | 37.0 | 0.00 | 0.00 | 0.00 | 49 | 1011.7 |
| 20260904113333 | 13 | 268 | 25.7 | 37.0 | 0.00 | 0.00 | 0.00 | 50 | 1011.8 |
| 20260904112836 | 13 | 262 | 22.5 | 35.4 | 0.00 | 0.00 | 0.00 | 51 | 1011.8 |
| 20260904112339 | 13 | 260 | 22.5 | 0.0 | 0.00 | 0.00 | 0.00 | 52 | 1011.8 |
| 20260904110848 | 13 | 268 | 24.1 | 33.8 | 0.00 | 0.00 | 0.00 | 53 | 1011.9 |
| 20260904105854 | 13 | 267 | 22.5 | 33.8 | 0.00 | 0.00 | 0.00 | 53 | 1011.7 |
| 20260904105357 | 13 | 268 | 22.5 | 37.0 | 0.00 | 0.00 | 0.00 | 52 | 1011.7 |
| 20260904104900 | 13 | 270 | 22.5 | 37.0 | 0.00 | 0.00 | 0.00 | 50 | 1011.8 |
| 20260904104403 | 13 | 265 | 22.5 | 37.0 | 0.00 | 0.00 | 0.00 | 51 | 1011.8 |
| 20260904103906 | 13 | 267 | 22.5 | 37.0 | 0.00 | 0.00 | 0.00 | 50 | 1011.7 |
| 20260904103409 | 13 | 267 | 22.5 | 33.8 | 0.00 | 0.00 | 0.00 | 50 | 1011.6 |
| 20260904102912 | 13 | 264 | 22.5 | 35.4 | 0.00 | 0.00 | 0.00 | 50 | 1011.6 |
| 20260904102415 | 13 | 269 | 22.5 | 35.4 | 0.00 | 0.00 | 0.00 | 50 | 1011.7 |
| 20260904101918 | 13 | 270 | 24.1 | 35.4 | 0.00 | 0.00 | 0.00 | 50 | 1011.6 |
| 20260904100924 | 14 | 269 | 20.9 | 35.4 | 0.00 | 0.00 | 0.00 | 47 | 1011.7 |
| 20260904100427 | 13 | 273 | 24.1 | 35.4 | 0.00 | 0.00 | 0.00 | 48 | 1011.5 |
| 20260904095930 | 13 | 271 | 20.9 | 37.0 | 0.00 | 0.00 | 0.00 | 48 | 1011.5 |
| 20260904095433 | 14 | 265 | 22.5 | 37.0 | 0.00 | 0.00 | 0.00 | 49 | 1011.5 |
| 20260904094936 | 14 | 269 | 25.7 | 35.4 | 0.00 | 0.00 | 0.00 | 46 | 1011.6 |
| 20260904093942 | 14 | 272 | 25.7 | 38.6 | 0.00 | 0.00 | 0.00 | 45 | 1011.5 |
| 20260904092948 | 15 | 271 | 25.7 | 38.6 | 0.00 | 0.00 | 0.00 | 44 | 1011.5 |
| 20260904092451 | 15 | 268 | 25.7 | 41.8 | 0.00 | 0.00 | 0.00 | 41 | 1011.6 |
| 20260904091954 | 15 | 265 | 25.7 | 41.8 | 0.00 | 0.00 | 0.00 | 40 | 1011.7 |
| 20260904090504 | 15 | 268 | 27.4 | 38.6 | 0.00 | 0.00 | 0.00 | 39 | 1011.8 |
| 20260904084515 | 15 | 270 | 22.5 | 35.4 | 0.00 | 0.00 | 0.00 | 37 | 1012.1 |
| 20260904084018 | 15 | 268 | 22.5 | 37.0 | 0.00 | 0.00 | 0.00 | 37 | 1012.0 |
| 20260904083024 | 15 | 271 | 25.7 | 38.6 | 0.00 | 0.00 | 0.00 | 36 | 1012.1 |
| 20260904082527 | 15 | 272 | 25.7 | 38.6 | 0.00 | 0.00 | 0.00 | 34 | 1012.0 |
| 20260904081533 | 15 | 263 | 24.1 | 35.4 | 0.00 | 0.00 | 0.00 | 31 | 1012.3 |
| 20260904081036 | 15 | 256 | 24.1 | 37.0 | 0.00 | 0.00 | 0.00 | 30 | 1012.3 |
| 20260904080042 | 15 | 259 | 24.1 | 33.8 | 0.00 | 0.00 | 0.00 | 30 | 1012.3 |
| 20260904075048 | 15 | 250 | 22.5 | 38.6 | 0.00 | 0.00 | 0.00 | 31 | 1012.4 |
| 20260904074551 | 15 | 252 | 24.1 | 38.6 | 0.00 | 0.00 | 0.00 | 31 | 1012.5 |
| 20260904074054 | 15 | 253 | 27.4 | 38.6 | 0.00 | 0.00 | 0.00 | 31 | 1012.4 |
| 20260904073557 | 15 | 255 | 25.7 | 35.4 | 0.00 | 0.00 | 0.00 | 32 | 1012.5 |
| 20260904073100 | 15 | 252 | 24.1 | 35.4 | 0.00 | 0.00 | 0.00 | 30 | 1012.6 |
| 20260904072106 | 16 | 256 | 24.1 | 37.0 | 0.00 | 0.00 | 0.00 | 25 | 1012.7 |
| 20260904071609 | 16 | 255 | 24.1 | 37.0 | 0.00 | 0.00 | 0.00 | 23 | 1012.7 |
| 20260904071112 | 16 | 252 | 27.4 | 37.0 | 0.00 | 0.00 | 0.00 | 22 | 1012.7 |
| 20260904070615 | 16 | 253 | 24.1 | 35.4 | 0.00 | 0.00 | 0.00 | 21 | 1012.7 |
| 20260904070118 | 16 | 255 | 24.1 | 33.8 | 0.00 | 0.00 | 0.00 | 20 | 1012.7 |
| 20260904065621 | 16 | 254 | 22.5 | 37.0 | 0.00 | 0.00 | 0.00 | 19 | 1012.7 |
| 20260904065124 | 16 | 253 | 25.7 | 37.0 | 0.00 | 0.00 | 0.00 | 19 | 1012.6 |
| 20260904064627 | 16 | 248 | 24.1 | 33.8 | 0.00 | 0.00 | 0.00 | 19 | 1012.6 |
| 20260904064130 | 16 | 241 | 24.1 | 33.8 | 0.00 | 0.00 | 0.00 | 19 | 1012.5 |
| 20260904063633 | 16 | 250 | 24.1 | 33.8 | 0.00 | 0.00 | 0.00 | 19 | 1012.5 |
| 20260904062639 | 16 | 252 | 22.5 | 30.6 | 0.00 | 0.00 | 0.00 | 19 | 1012.5 |
| 20260904062142 | 16 | 243 | 20.9 | 30.6 | 0.00 | 0.00 | 0.00 | 20 | 1012.5 |
| 20260904061148 | 16 | 248 | 22.5 | 32.2 | 0.00 | 0.00 | 0.00 | 20 | 1012.5 |
| 20260904060154 | 16 | 243 | 19.3 | 27.4 | 0.00 | 0.00 | 0.00 | 21 | 1012.5 |
| 20260904055200 | 16 | 247 | 19.3 | 29.0 | 0.00 | 0.00 | 0.00 | 21 | 1012.6 |
| 20260904053212 | 16 | 249 | 17.7 | 29.0 | 0.00 | 0.00 | 0.00 | 23 | 1012.7 |
| 20260904052715 | 16 | 250 | 19.3 | 29.0 | 0.00 | 0.00 | 0.00 | 23 | 1012.6 |
| 20260904052218 | 16 | 250 | 17.7 | 29.0 | 0.00 | 0.00 | 0.00 | 23 | 1012.6 |
| 20260904051721 | 17 | 251 | 19.3 | 29.0 | 0.00 | 0.00 | 0.00 | 23 | 1012.5 |
| 20260904051224 | 17 | 254 | 20.9 | 32.2 | 0.00 | 0.00 | 0.00 | 23 | 1012.6 |
| 20260904050727 | 17 | 247 | 22.5 | 33.8 | 0.00 | 0.00 | 0.00 | 23 | 1012.6 |
| 20260904050230 | 17 | 249 | 24.1 | 38.6 | 0.00 | 0.00 | 0.00 | 23 | 1012.5 |
| 20260904044739 | 17 | 259 | 25.7 | 41.8 | 0.00 | 0.00 | 0.00 | 24 | 1013.4 |
| 20260904043248 | 17 | 254 | 29.0 | 37.0 | 0.00 | 0.00 | 0.00 | 24 | 1013.4 |
| 20260904042751 | 17 | 251 | 27.4 | 37.0 | 0.00 | 0.00 | 0.00 | 24 | 1013.3 |
| 20260904041757 | 16 | 250 | 22.5 | 30.6 | 0.00 | 0.00 | 0.00 | 29 | 1013.3 |
| 20260904041300 | 16 | 253 | 19.3 | 27.4 | 0.00 | 0.00 | 0.00 | 32 | 1013.4 |
| 20260904040306 | 16 | 249 | 19.3 | 29.0 | 0.00 | 0.00 | 0.00 | 42 | 1013.4 |
| 20260904035312 | 16 | 249 | 19.3 | 27.4 | 0.00 | 0.00 | 0.00 | 47 | 1013.2 |
| 20260904034815 | 16 | 252 | 20.9 | 27.4 | 0.00 | 0.00 | 0.00 | 52 | 1013.1 |
| 20260904034318 | 15 | 248 | 19.3 | 29.0 | 0.00 | 0.00 | 0.00 | 60 | 1013.0 |
| 20260904033821 | 15 | 246 | 20.9 | 30.6 | 0.00 | 0.00 | 0.00 | 65 | 1013.1 |
| 20260904033324 | 15 | 246 | 19.3 | 30.6 | 0.00 | 0.00 | 0.00 | 69 | 1012.9 |
| 20260904032827 | 15 | 246 | 19.3 | 27.4 | 0.00 | 0.00 | 0.00 | 72 | 1013.0 |
| 20260904032330 | 15 | 247 | 17.7 | 30.6 | 0.00 | 0.00 | 0.00 | 74 | 1012.9 |
| 20260904031336 | 15 | 250 | 20.9 | 29.0 | 0.00 | 0.00 | 0.00 | 79 | 1012.6 |
| 20260904030839 | 14 | 254 | 20.9 | 27.4 | 0.00 | 0.00 | 0.00 | 80 | 1012.6 |
| 20260904025348 | 14 | 251 | 19.3 | 29.0 | 0.00 | 0.00 | 0.00 | 82 | 1012.5 |
| 20260904024851 | 14 | 252 | 19.3 | 29.0 | 0.00 | 0.00 | 0.00 | 82 | 1012.6 |
| 20260904024354 | 15 | 253 | 20.9 | 29.0 | 0.00 | 0.00 | 0.00 | 81 | 1012.5 |
| 20260904022406 | 15 | 258 | 25.7 | 30.6 | 0.00 | 0.00 | 0.00 | 79 | 1012.5 |
| 20260904021909 | 15 | 260 | 22.5 | 30.6 | 0.00 | 0.00 | 0.00 | 78 | 1012.4 |
| 20260904021412 | 15 | 249 | 19.3 | 30.6 | 0.00 | 0.00 | 0.00 | 77 | 1012.6 |
| 20260904020915 | 16 | 256 | 22.5 | 32.2 | 0.00 | 0.00 | 0.00 | 76 | 1012.6 |
| 20260904020418 | 16 | 258 | 24.1 | 32.2 | 0.00 | 0.00 | 0.00 | 75 | 1012.5 |
| 20260904015921 | 16 | 255 | 19.3 | 33.8 | 0.00 | 0.00 | 0.00 | 74 | 1012.6 |
| 20260904015424 | 16 | 259 | 25.7 | 33.8 | 0.00 | 0.00 | 0.00 | 73 | 1012.7 |
| 20260904014927 | 17 | 259 | 22.5 | 32.2 | 0.00 | 0.00 | 0.00 | 71 | 1012.7 |
| 20260904013933 | 17 | 260 | 22.5 | 35.4 | 0.00 | 0.00 | 0.00 | 68 | 1012.7 |
| 20260904012939 | 18 | 264 | 24.1 | 35.4 | 0.00 | 0.00 | 0.00 | 66 | 1012.8 |
| 20260904012442 | 18 | 260 | 24.1 | 35.4 | 0.00 | 0.00 | 0.00 | 65 | 1012.7 |
| 20260904011945 | 18 | 263 | 27.4 | 35.4 | 0.00 | 0.00 | 0.00 | 63 | 1012.8 |
| 20260904011448 | 18 | 259 | 27.4 | 37.0 | 0.00 | 0.00 | 0.00 | 62 | 1012.9 |
| 20260904010951 | 18 | 255 | 24.1 | 37.0 | 0.00 | 0.00 | 0.00 | 61 | 1012.9 |
| 20260904010454 | 19 | 261 | 27.4 | 37.0 | 0.00 | 0.00 | 0.00 | 60 | 1012.8 |
| 20260904005957 | 19 | 254 | 25.7 | 38.6 | 0.00 | 0.00 | 0.00 | 59 | 1012.9 |
| 20260904003512 | 20 | 250 | 22.5 | 35.4 | 0.00 | 0.00 | 0.00 | 55 | 1012.9 |
| 20260904002518 | 20 | 256 | 27.4 | 38.6 | 0.00 | 0.00 | 0.00 | 54 | 1012.9 |
| 20260904002021 | 20 | 257 | 29.0 | 38.6 | 0.00 | 0.00 | 0.00 | 54 | 1012.8 |
| 20260904001524 | 20 | 253 | 29.0 | 38.6 | 0.00 | 0.00 | 0.00 | 53 | 1012.9 |
| 20260904001027 | 21 | 251 | 24.1 | 37.0 | 0.00 | 0.00 | 0.00 | 52 | 1012.8 |
| 20260904000530 | 21 | 261 | 25.7 | 38.6 | 0.00 | 0.00 | 0.00 | 52 | |
| 20260903235536 | 21 | 252 | 22.5 | 37.0 | 0.00 | 0.00 | 0.00 | 52 | 1012.8 |
| 20260903235039 | 22 | 267 | 24.1 | 38.6 | 0.00 | 0.00 | 0.00 | 51 | 1012.7 |
| 20260903234542 | 22 | 252 | 22.5 | 38.6 | 0.00 | 0.00 | 0.00 | 51 | 1012.6 |
| 20260903233548 | 21 | 247 | 27.4 | 38.6 | 0.00 | 0.00 | 0.00 | 52 | 1012.9 |
| 20260903232553 | 22 | 255 | 30.6 | 38.6 | 0.00 | 0.00 | 0.00 | 51 | 1013.0 |
| 20260903232057 | 22 | 255 | 24.1 | 38.6 | 0.00 | 0.00 | 0.00 | 49 | 1013.0 |
| 20260903231600 | 22 | 252 | 27.4 | 40.2 | 0.00 | 0.00 | 0.00 | 50 | 1013.0 |
| 20260903230606 | 22 | 255 | 27.4 | 40.2 | 0.00 | 0.00 | 0.00 | 49 | 1013.2 |
| 20260903230109 | 22 | 280 | 22.5 | 41.8 | 0.00 | 0.00 | 0.00 | 52 | 1013.1 |
| 20260903225612 | -17 | 258 | 32.2 | 41.8 | 0.00 | 0.00 | 0.00 | ||
| 20260903225115 | 22 | 261 | 29.0 | 40.2 | 0.00 | 0.00 | 0.00 | 50 | 1013.2 |
| 20260903224120 | 23 | 286 | 24.1 | 33.8 | 0.00 | 0.00 | 0.00 | 49 | 1013.3 |
| 20260903223624 | 23 | 284 | 24.1 | 33.8 | 0.00 | 0.00 | 0.00 | 48 | 1013.5 |
| 20260903223126 | 23 | 257 | 22.5 | 41.8 | 0.00 | 0.00 | 0.00 | 47 | 1013.8 |
| 20260903222630 | 23 | 262 | 27.4 | 41.8 | 0.00 | 0.00 | 0.00 | 46 | 1013.6 |
| 20260903222133 | 23 | 253 | 22.5 | 38.6 | 0.00 | 0.00 | 0.00 | 46 | 1013.9 |
| 20260903221636 | 23 | 245 | 24.1 | 37.0 | 0.00 | 0.00 | 0.00 | 43 | 1013.8 |
| 20260903214654 | 24 | 257 | 22.5 | 35.4 | 0.00 | 0.00 | 0.00 | 35 | 1014.1 |
| 20260903214157 | 23 | 261 | 19.3 | 38.6 | 0.00 | 0.00 | 0.00 | 34 | 1014.2 |
| 20260903213700 | 23 | 238 | 25.7 | 38.6 | 0.00 | 0.00 | 0.00 | 33 | 1014.3 |
| 20260903213203 | 23 | 252 | 20.9 | 37.0 | 0.00 | 0.00 | 0.00 | 32 | 1014.1 |
| 20260903212706 | 24 | 265 | 20.9 | 37.0 | 0.00 | 0.00 | 0.00 | 33 | 1014.3 |
| 20260903211712 | 24 | 258 | 24.1 | 38.6 | 0.00 | 0.00 | 0.00 | 32 | 1014.3 |
| 20260903211215 | 24 | 255 | 17.7 | 41.8 | 0.00 | 0.00 | 0.00 | 30 | 1014.2 |
| 20260903204730 | 23 | 261 | 14.5 | 38.6 | 0.00 | 0.00 | 0.00 | 30 | 1014.3 |
| 20260903203239 | 23 | 237 | 22.5 | 38.6 | 0.00 | 0.00 | 0.00 | 29 | 1014.6 |
| 20260903202742 | 23 | 264 | 25.7 | 37.0 | 0.00 | 0.00 | 0.00 | 29 | 1014.6 |
| 20260903201335 | 23 | 245 | 20.9 | 35.4 | 0.00 | 0.00 | 0.00 | 29 | 1014.6 |
| 20260903201251 | 23 | 245 | 20.9 | 35.4 | 0.00 | 0.00 | 0.00 | 29 | 1014.6 |
| 20260903200257 | 23 | 277 | 16.1 | 38.6 | 0.00 | 0.00 | 0.00 | 29 | 1014.6 |
| 20260903195800 | 23 | 250 | 24.1 | 38.6 | 0.00 | 0.00 | 0.00 | 29 | 1014.8 |
| 20260903195306 | 23 | 259 | 22.5 | 38.6 | 0.00 | 0.00 | 0.00 | 29 | 1015.0 |
| 20260903194806 | 23 | 263 | 29.0 | 38.6 | 0.00 | 0.00 | 0.00 | 28 | 1014.9 |
| 20260903194309 | 23 | 272 | 20.9 | 38.6 | 0.00 | 0.00 | 0.00 | 27 | 1014.8 |
| 20260903193812 | 23 | 288 | 20.9 | 37.0 | 0.00 | 0.00 | 0.00 | 27 | 1014.8 |
| 20260903193315 | 23 | 255 | 20.9 | 38.6 | 0.00 | 0.00 | 0.00 | 27 | 1014.8 |
| 20260903192818 | 23 | 254 | 29.0 | 38.6 | 0.00 | 0.00 | 0.00 | 27 | 1015.1 |
| 20260903192321 | 23 | 270 | 20.9 | 40.2 | 0.00 | 0.00 | 0.00 | 27 | 1014.9 |
| 20260903191824 | 23 | 239 | 17.7 | 40.2 | 0.00 | 0.00 | 0.00 | 26 | 1015.2 |
| 20260903190830 | 23 | 236 | 24.1 | 35.4 | 0.00 | 0.00 | 0.00 | 23 | 1015.3 |
| 20260903185836 | 23 | 244 | 25.7 | 37.0 | 0.00 | 0.00 | 0.00 | ||
| 20260903185339 | 23 | 253 | 20.9 | 33.8 | 0.00 | 0.00 | 0.00 | 24 | 1015.4 |
| 20260903184842 | 22 | 250 | 20.9 | 37.0 | 0.00 | 0.00 | 0.00 | 24 | 1015.4 |
| 20260903184345 | 22 | 237 | 24.1 | 37.0 | 0.00 | 0.00 | 0.00 | 24 | 1015.5 |
| 20260903183848 | 22 | 248 | 22.5 | 37.0 | 0.00 | 0.00 | 0.00 | 26 | 1015.4 |
| 20260903183351 | 22 | 277 | 20.9 | 35.4 | 0.00 | 0.00 | 0.00 | 26 | 1015.5 |
| 20260903182854 | 22 | 271 | 19.3 | 35.4 | 0.00 | 0.00 | 0.00 | 25 | 1015.7 |
| 20260903181900 | 22 | 274 | 22.5 | 35.4 | 0.00 | 0.00 | 0.00 | 26 | 1015.5 |
| 20260903180906 | 22 | 250 | 22.5 | 33.8 | 0.00 | 0.00 | 0.00 | 25 | 1015.8 |
| 20260903175415 | 22 | 254 | 14.5 | 32.2 | 0.00 | 0.00 | 0.00 | 27 | 1015.9 |
| 20260903174917 | 22 | 255 | 19.3 | 32.2 | 0.00 | 0.00 | 0.00 | 26 | 1015.8 |
| 20260903173427 | 21 | 229 | 17.7 | 32.2 | 0.00 | 0.00 | 0.00 | 27 | 1015.8 |
| 20260903172930 | 21 | 259 | 20.9 | 32.2 | 0.00 | 0.00 | 0.00 | 27 | 1015.8 |
| 20260903171936 | 20 | 255 | 20.9 | 37.0 | 0.00 | 0.00 | 0.00 | 29 | 1015.8 |
| 20260903171439 | 20 | 254 | 24.1 | 37.0 | 0.00 | 0.00 | 0.00 | 28 | 1015.7 |
| 20260903170942 | 20 | 265 | 19.3 | 37.0 | 0.00 | 0.00 | 0.00 | 29 | 1015.7 |
| 20260903165947 | 20 | 265 | 25.7 | 35.4 | 0.00 | 0.00 | 0.00 | 28 | 1015.7 |
| 20260903165451 | 20 | 253 | 20.9 | 33.8 | 0.00 | 0.00 | 0.00 | 30 | 1015.7 |
| 20260903164954 | 19 | 251 | 22.5 | 35.4 | 0.00 | 0.00 | 0.00 | 30 | 1015.7 |
| 20260903164457 | 19 | 245 | 22.5 | 37.0 | 0.00 | 0.00 | 0.00 | 30 | 1015.7 |
| 20260903163502 | 19 | 252 | 24.1 | 38.6 | 0.00 | 0.00 | 0.00 | 31 | 1015.6 |
| 20260903163006 | 18 | 253 | 22.5 | 32.2 | 0.00 | 0.00 | 0.00 | 31 | 1015.5 |
| 20260903162508 | 18 | 259 | 20.9 | 38.6 | 0.00 | 0.00 | 0.00 | 32 | 1015.5 |
| 20260903161514 | 18 | 272 | 22.5 | 33.8 | 0.00 | 0.00 | 0.00 | 31 | 1015.5 |
| 20260903155030 | 18 | 250 | 20.9 | 35.4 | 0.00 | 0.00 | 0.00 | 30 | 1015.3 |
| 20260903154533 | 18 | 254 | 20.9 | 35.4 | 0.00 | 0.00 | 0.00 | 30 | 1015.3 |
| 20260903154036 | 18 | 243 | 19.3 | 30.6 | 0.00 | 0.00 | 0.00 | 30 | 1015.4 |
| 20260903153539 | 17 | 258 | 20.9 | 33.8 | 0.00 | 0.00 | 0.00 | 30 | 1015.3 |
| 20260903153042 | 17 | 249 | 16.1 | 33.8 | 0.00 | 0.00 | 0.00 | 30 | 1015.3 |
| 20260903152734 | 17 | 261 | 20.9 | 35.4 | 0.00 | 0.00 | 0.00 | 30 | 1015.3 |
| 20260903152544 | 17 | 261 | 20.9 | 35.4 | 0.00 | 0.00 | 0.00 | 30 | 1015.3 |
| 20260903152048 | 17 | 250 | 22.5 | 35.4 | 0.00 | 0.00 | 0.00 | 30 | 1015.4 |
| 20260903151054 | 17 | 252 | 24.1 | 33.8 | 0.00 | 0.00 | 0.00 | 29 | 1014.5 |
| 20260903150557 | 17 | 252 | 20.9 | 33.8 | 0.00 | 0.00 | 0.00 | 28 | 1014.5 |
| 20260903150100 | 17 | 249 | 20.9 | 33.8 | 0.00 | 0.00 | 0.00 | 28 | 1014.5 |
| 20260903145106 | 16 | 248 | 19.3 | 33.8 | 0.00 | 0.00 | 0.00 | 24 | 1014.4 |
| 20260903144608 | 16 | 256 | 22.5 | 33.8 | 0.00 | 0.00 | 0.00 | 22 | 1014.4 |
| 20260903144112 | 16 | 246 | 25.7 | 33.8 | 0.00 | 0.00 | 0.00 | 22 | 1014.4 |
| 20260903143614 | 16 | 242 | 24.1 | 32.2 | 0.00 | 0.00 | 0.00 | 22 | 1014.3 |
| 20260903143117 | 16 | 246 | 20.9 | 35.4 | 0.00 | 0.00 | 0.00 | 21 | 1014.3 |
| 20260903142620 | 16 | 251 | 20.9 | 35.4 | 0.00 | 0.00 | 0.00 | 23 | 1014.1 |
| 20260903142123 | 16 | 248 | 24.1 | 37.0 | 0.00 | 0.00 | 0.00 | 21 | 1014.1 |
| 20260903141628 | 16 | 250 | 24.1 | 37.0 | 0.00 | 0.00 | 0.00 | 20 | 1014.0 |
| 20260903141129 | 16 | 250 | 25.7 | 37.0 | 0.00 | 0.00 | 0.00 | 18 | 1014.0 |
| 20260903140632 | 16 | 254 | 24.1 | 37.0 | 0.00 | 0.00 | 0.00 | 17 | 1013.9 |
| 20260903140135 | 16 | 252 | 25.7 | 37.0 | 0.00 | 0.00 | 0.00 | 18 | 1013.8 |
| 20260903135638 | 15 | 256 | 20.9 | 33.8 | 0.00 | 0.00 | 0.00 | 18 | 1013.7 |
| 20260903135141 | 15 | 263 | 24.1 | 33.8 | 0.00 | 0.00 | 0.00 | 18 | 1013.6 |
| 20260903134644 | 15 | 263 | 22.5 | 35.4 | 0.00 | 0.00 | 0.00 | 17 | 1013.5 |